Temp
16 16 17 17 17 16 16 16 16 16 15 15 15 15 14 14 14 14 14 14 14 14 14 14 14 14 15 15 15 15 15 15 15 15 15 15 15 15 15 15 15 15 15
17 17 16 16 16 15 15 15 15 15 14 14 14 14 13 13 13 13 13 14 14 14 12 12 13 13 14 14 14 14 14 14 14 15 15 14 14 14 15 15 15 15 15
16 17 16 15 15 15 15 14 14 14 14 14 14 13 13 12 13 13 13 13 13 13 13 11 11 11 11 12 13 13 13 13 14 14 14 13 13 14 14 13 13 14 14
16 16 16 15 15 15 14 14 13 13 12 12 13 13 12 12 12 12 12 12 12 12 11 11 11 10 10 10 11 11 12 12 12 12 12 12 13 12 13 13 13 13 13
16 16 16 15 14 14 14 13 12 11 11 11 12 12 11 11 11 12 12 11 11 11 11 10 10 10 9 9 9 10 10 11 11 12 12 11 12 12 12 12 12 12 12
16 16 15 14 13 13 12 12 11 10 9 9 11 12 11 11 10 11 10 10 10 10 10 9 9 9 8 8 7 8 9 9 10 11 10 11 11 11 11 11 11 12 12
15 15 14 13 12 12 10 10 10 10 8 8 9 10 11 10 10 10 11 9 9 9 9 9 8 8 8 7 7 7 7 8 9 10 9 10 10 10 10 10 11 11 11
14 14 13 13 11 11 10 9 9 8 8 7 6 5 3 7 9 11 10 9 10 9 9 7 7 7 7 6 7 6 6 7 8 8 8 9 9 9 9 9 10 10 10
13 13 12 11 11 10 9 8 7 7 6 7 6 6 3 3 2 7 9 8 7 6 5 5 5 6 6 6 6 5 6 6 7 7 8 8 8 8 8 8 9 9 9
12 12 11 11 10 9 8 7 7 6 6 5 6 5 5 4 2 1 5 5 4 3 3 3 4 4 4 5 5 5 5 5 6 6 7 7 7 7 7 8 8 9 9
11 11 10 10 9 8 8 7 6 6 5 4 4 3 3 3 3 1 1 1 2 2 2 2 2 3 4 4 4 4 4 5 5 5 5 5 6 6 6 7 7 8 8
10 10 9 9 8 8 7 6 6 5 5 4 3 3 2 2 1 0 -1 0 0 1 1 1 2 2 3 3 3 3 3 3 4 4 4 4 5 5 6 6 6 7 7
9 9 8 8 7 7 6 6 5 5 4 4 3 3 2 2 1 1 -0 -1 -1 -0 0 0 1 1 1 2 2 2 2 2 2 2 3 3 4 4 4 4 5 5 5
9 8 8 7 6 6 5 5 5 4 4 3 3 2 2 2 1 0 -1 -2 -2 -2 -0 -0 -0 0 1 0 0 1 1 1 1 1 2 2 2 3 3 3 3 4 4
8 7 7 6 6 5 5 4 4 4 3 3 2 2 1 1 1 -0 -1 -1 -3 -3 -2 -1 -1 -1 -1 -1 -1 -0 -0 -1 0 1 1 1 1 1 1 2 2 2 2
7 7 6 6 5 4 4 4 4 3 3 2 2 1 1 1 0 -0 -1 -2 -2 -3 -3 -2 -2 -2 -2 -2 -2 -1 -1 -1 -1 -1 -0 0 0 1 0 1 1 1 2
6 6 5 5 4 4 3 3 3 2 2 2 1 1 1 1 0 -1 -1 -2 -2 -3 -4 -3 -2 -2 -2 -2 -2 -2 -2 -2 -2 -3 -1 -1 -1 -1 -0 0 0 1 1
6 5 5 4 4 3 3 3 2 2 1 1 1 0 -0 -0 -1 -1 -1 -2 -2 -2 -3 -3 -3 -2 -2 -2 -2 -3 -3 -3 -3 -3 -2 -2 -1 -1 -1 -1 -1 -0 -0
5 4 4 3 3 3 2 2 1 1 0 -0 -1 -1 -1 -2 -2 -2 -2 -3 -3 -3 -3 -3 -3 -2 -2 -3 -3 -3 -3 -3 -3 -3 -3 -3 -3 -2 -2 -2 -1 -1 -1
4 4 3 2 2 2 2 1 1 0 -0 -1 -2 -2 -2 -2 -3 -2 -2 -2 -2 -2 -3 -3 -3 -3 -3 -3 -3 -3 -4 -4 -4 -4 -4 -4 -3 -3 -3 -3 -2 -2 -2
3 3 2 2 2 1 1 0 0 -0 -1 -2 -2 -2 -3 -3 -3 -2 -2 -2 -2 -3 -3 -3 -3 -3 -3 -3 -4 -4 -4 -4 -4 -4 -4 -4 -4 -4 -4 -4 -4 -4 -4
2 2 2 1 1 0 -0 -0 0 -0 -1 -2 -3 -3 -3 -3 -3 -3 -3 -2 -2 -3 -4 -3 -4 -4 -4 -5 -5 -5 -5 -5 -5 -4 -4 -5 -5 -5 -5 -5 -5 -4 -3
2 1 1 0 0 -1 -1 -1 -1 -1 -2 -2 -2 -3 -3 -3 -3 -3 -3 -3 -4 -3 -3 -3 -4 -5 -5 -5 -5 -5 -5 -5 -5 -5 -5 -5 -5 -5 -5 -5 -5 -4 -3
1 1 0 -0 -1 -1 -2 -2 -2 -2 -2 -2 -2 -3 -3 -3 -3 -3 -3 -4 -4 -4 -4 -4 -4 -5 -5 -4 -5 -5 -5 -6 -5 -5 -5 -6 -5 -6 -5 -5 -5 -4 -4
0 -0 -1 -1 -2 -2 -3 -3 -2 -2 -2 -2 -2 -3 -3 -3 -3 -3 -3 -3 -4 -5 -5 -5 -4 -5 -5 -5 -5 -5 -6 -6 -6 -5 -5 -6 -6 -6 -6 -5 -5 -4 -3
-1 -1 -1 -2 -3 -3 -3 -3 -3 -3 -3 -3 -3 -3 -3 -3 -3 -3 -3 -4 -6 -5 -6 -6 -6 -6 -7 -7 -6 -6 -6 -7 -6 -6 -5 -6 -6 -6 -5 -4 -4 -5 -5
Height
796 796 797 797 798 798 798 796 796 795 793 791 791 789 788 786 785 784 783 782 781 781 781 780 779 778 776 775 773 771 769 768 767 766 765 764 764 764 764 763 762 762 762
795 796 796 797 797 797 797 794 796 794 791 790 789 788 787 785 784 783 782 782 781 780 780 779 778 777 776 774 772 771 769 767 766 765 764 762 761 761 760 759 759 758 758
794 795 797 797 797 797 796 795 795 792 790 789 788 787 785 784 783 783 782 781 780 779 778 777 777 776 775 773 772 770 768 766 764 763 762 761 760 758 758 757 756 754 754
793 795 796 797 797 796 794 794 793 791 789 788 787 785 783 782 782 782 781 781 780 779 778 777 776 774 773 772 770 768 767 765 763 761 760 758 757 756 755 753 752 751 750
793 795 795 796 796 796 793 794 794 791 789 788 785 783 781 780 781 781 780 780 780 779 778 777 775 774 772 771 769 767 765 763 761 759 757 755 754 753 751 750 749 747 746
793 794 795 796 796 795 793 794 794 792 791 790 785 781 778 779 780 779 779 780 779 778 777 775 774 772 770 768 766 764 762 760 757 755 754 752 750 749 747 746 744 742 741
792 794 795 795 796 794 793 794 794 793 792 789 785 781 779 778 778 778 778 778 777 776 774 772 771 768 766 764 762 761 759 756 754 752 750 748 746 744 743 741 739 737 735
792 793 794 794 795 794 794 794 795 794 794 793 791 788 787 780 777 777 776 775 774 773 773 771 769 766 763 760 758 756 754 751 749 747 745 743 741 739 737 735 733 731 729
792 793 794 794 794 794 794 796 797 796 796 796 795 795 794 794 785 775 775 774 774 772 772 769 766 763 760 757 753 751 748 746 744 742 740 738 736 734 732 729 727 725 722
791 793 793 794 794 794 795 797 797 798 798 798 796 796 796 796 792 781 774 772 771 770 767 764 761 758 754 751 749 746 743 742 740 738 735 733 730 727 725 722 719 716 714
792 792 793 794 794 795 796 797 798 798 798 798 796 795 794 792 791 790 777 769 767 765 762 760 756 753 750 747 744 741 740 738 735 733 730 727 724 720 716 713 710 708 706
791 792 794 794 794 796 797 797 798 798 797 796 795 795 793 792 790 789 782 773 765 758 757 752 751 748 745 743 740 737 735 733 730 726 723 719 715 711 707 704 701 699 696
790 793 794 794 795 796 796 797 797 796 795 794 792 791 790 790 788 786 783 774 764 754 749 748 746 744 741 739 736 733 730 726 723 719 715 710 706 702 699 695 692 688 686
791 793 793 794 796 796 795 795 794 794 793 791 791 789 788 786 785 784 781 776 761 753 746 743 741 739 738 736 733 729 724 720 716 711 706 702 698 694 691 687 683 679 676
791 791 793 794 795 794 794 793 792 791 790 789 788 786 784 782 781 779 777 775 772 755 738 737 737 735 732 729 726 722 718 714 710 705 699 695 691 687 682 677 673 670 666
790 791 792 793 794 793 792 791 790 789 787 786 784 782 780 777 775 773 771 769 767 762 747 737 731 729 726 722 719 715 710 707 702 697 692 689 683 677 672 666 661 656 652
789 790 791 792 792 791 790 788 787 786 783 781 780 778 775 773 770 768 765 763 759 756 747 726 727 722 718 714 709 706 702 699 694 691 687 680 674 668 661 654 649 645 641
788 788 789 790 790 789 787 785 784 782 780 778 777 774 770 768 765 762 760 756 752 747 742 730 720 716 712 707 701 696 693 689 685 680 676 670 663 657 651 645 640 636 632
786 787 788 788 787 786 784 783 781 780 779 776 773 770 767 763 759 756 753 748 744 739 735 729 716 711 704 700 694 689 685 680 675 671 667 660 654 649 642 637 632 626 622
785 786 786 786 785 784 782 780 780 778 775 773 770 767 763 759 754 750 746 742 738 734 727 720 711 703 699 694 691 683 675 672 665 662 655 650 646 639 634 629 623 617 612
784 785 785 785 783 781 780 779 777 774 771 769 766 762 758 754 751 747 742 737 732 726 720 712 706 702 696 689 684 678 670 662 655 654 644 638 633 628 622 618 613 607 603
784 784 784 782 780 779 777 776 774 771 768 765 761 757 753 749 745 741 737 732 728 721 716 711 703 696 691 686 678 672 665 657 642 645 637 627 626 616 612 606 601 597 591
783 783 781 780 778 776 774 773 771 767 764 761 757 752 748 744 740 735 729 724 720 717 714 707 699 693 686 680 673 666 660 653 643 636 633 618 615 606 600 594 590 585 580
781 780 779 778 775 773 772 770 766 763 760 757 753 748 744 739 735 730 723 718 713 709 705 700 694 687 681 675 670 662 654 645 636 630 626 613 606 597 590 584 578 572 568
779 778 777 774 772 771 769 765 762 759 756 752 747 744 740 735 731 725 720 713 707 701 697 693 688 683 676 669 664 656 648 641 629 621 617 609 598 589 582 571 565 561 556
778 776 774 773 772 768 765 763 760 755 751 746 743 739 736 732 725 720 715 709 702 695 690 684 679 673 668 661 657 653 646 637 628 615 608 605 593 588 571 561 556 551 543
Wind_Speed
6 5 4 3 2 4 3 5 7 8 10 12 13 13 12 13 9 6 6 7 7 9 11 12 12 12 12 11 12 12 11 11 10 8 6 5 4 5 8 11 15 17 18
5 5 5 4 4 5 6 8 9 11 12 14 14 12 10 10 6 7 6 7 8 9 13 15 15 15 13 14 13 12 12 11 10 8 7 6 5 7 8 6 7 8 11
9 5 6 6 7 7 8 9 10 12 13 15 14 11 12 5 10 8 8 7 8 9 9 13 16 16 15 15 14 14 14 14 12 10 8 7 9 9 8 7 7 8 9
8 6 6 7 8 9 10 12 14 15 15 18 18 14 14 1 4 11 9 8 11 11 11 14 16 16 16 15 15 16 14 13 12 10 9 9 9 9 9 10 11 12 12
9 9 8 9 8 9 12 13 13 15 15 21 21 18 14 3 4 6 10 10 11 13 12 16 18 19 17 15 15 16 14 15 15 14 13 12 13 13 13 14 14 15 15
12 10 10 8 8 9 12 13 13 16 15 22 16 21 8 1 5 4 10 12 11 14 17 20 23 23 20 17 16 18 18 18 17 14 13 14 14 14 15 16 17 17 18
13 10 9 9 10 12 13 14 14 16 17 23 14 17 5 4 9 7 19 12 12 18 22 24 28 27 25 20 19 20 20 20 17 13 16 17 16 17 17 19 20 21 21
13 10 9 10 10 11 12 14 15 14 12 18 13 4 4 6 6 19 15 14 22 18 27 29 30 30 24 21 25 24 23 20 15 17 18 19 18 20 22 23 24 25 26
12 10 9 10 10 11 13 13 13 14 12 14 12 8 4 2 7 5 12 13 16 19 26 29 30 22 24 27 29 26 24 18 17 19 20 21 24 25 27 28 30 30 30
11 10 9 9 10 10 10 11 11 12 11 11 7 11 6 6 3 5 4 23 5 29 26 30 23 30 29 24 26 25 23 17 20 23 26 27 28 31 33 34 34 33 32
11 9 8 8 9 9 9 9 10 11 10 9 9 8 5 9 5 2 7 8 25 23 26 19 34 19 25 24 25 21 18 23 25 27 28 31 35 35 34 35 35 35 35
11 8 7 7 8 7 7 8 9 10 10 11 9 8 7 3 6 4 4 12 14 17 27 26 18 22 22 24 24 28 22 25 29 30 34 35 35 35 36 36 37 38 37
10 7 6 6 5 6 6 7 8 10 11 11 11 12 10 8 9 12 13 14 10 23 10 18 10 21 22 22 26 27 28 30 34 34 35 37 37 36 36 37 38 39 41
9 7 5 4 4 5 6 7 10 11 12 12 11 11 11 10 12 13 14 15 12 6 21 9 20 16 15 25 26 28 31 31 35 37 36 37 38 36 37 39 40 41 42
8 6 4 3 4 5 7 9 11 13 13 12 13 14 14 14 14 14 16 16 11 8 13 8 7 25 24 26 26 29 32 32 32 36 38 36 35 37 42 44 46 47 47
6 4 3 3 4 6 8 10 12 12 13 15 16 17 17 17 16 17 17 18 19 19 10 25 27 26 26 28 30 31 32 32 34 34 31 33 41 45 48 49 48 45 43
5 3 3 3 6 8 10 11 12 13 16 18 18 20 20 20 20 19 19 20 22 23 15 34 31 30 33 33 30 29 29 29 31 27 36 42 42 42 43 44 43 42 40
4 3 3 5 7 10 11 12 13 15 17 20 21 21 23 22 23 23 24 25 26 27 23 22 32 33 33 32 33 31 29 27 29 32 35 37 40 42 41 38 37 38 38
4 3 4 7 10 11 13 13 14 16 17 18 19 21 22 21 22 23 24 26 26 24 22 25 31 34 35 30 31 28 29 31 30 30 34 35 36 37 37 38 43 42 41
3 4 6 8 10 12 14 15 15 15 17 18 21 22 23 22 22 23 23 23 21 25 27 26 27 30 24 23 28 28 29 28 31 30 33 36 35 36 37 37 38 39 40
4 6 7 9 12 15 17 14 15 16 18 20 21 20 20 19 19 20 24 27 28 27 26 24 19 18 27 27 25 29 29 32 32 31 33 32 30 31 34 36 36 36 36
5 7 9 13 15 16 16 14 16 19 17 22 22 23 23 22 22 23 28 28 29 27 22 26 25 23 23 28 31 28 27 27 15 26 23 34 31 32 32 33 34 34 36
7 9 12 14 16 16 14 16 17 19 19 21 23 26 27 26 27 29 32 31 16 25 27 30 28 27 29 30 29 30 29 27 28 34 30 30 31 32 33 34 35 36 37
9 12 15 16 17 17 15 17 19 20 20 21 24 26 26 28 27 29 31 24 29 26 27 28 28 31 29 34 33 30 31 32 32 32 26 13 31 32 35 35 37 38 36
10 13 15 17 17 17 18 19 20 21 22 24 26 22 23 25 27 31 30 28 26 26 31 27 24 31 33 30 29 29 24 23 14 26 29 24 27 30 34 37 34 28 30
12 14 17 17 15 18 20 19 20 21 22 23 20 20 19 24 30 28 31 28 23 30 29 24 31 31 30 30 27 25 26 21 19 13 23 21 28 23 9 27 24 33 30
Wind_Direction
179 151 137 120 82 101 70 19 355 349 344 348 347 344 342 345 351 15 29 44 47 47 46 37 30 22 18 22 27 24 25 22 15 10 11 3 348 338 323 296 276 276 277
178 159 136 120 84 56 23 12 357 356 356 354 349 347 353 4 38 44 51 52 44 47 40 33 26 17 20 11 6 8 5 359 352 352 347 332 328 316 311 315 317 301 291
159 154 140 94 67 43 23 12 3 358 355 357 351 348 348 17 63 66 50 47 35 32 28 26 23 19 11 4 2 356 353 349 345 341 335 335 324 314 314 326 323 318 311
147 136 111 84 57 38 23 10 2 3 2 358 348 346 345 172 97 55 42 40 28 24 19 13 8 7 6 2 357 352 346 347 344 337 330 324 318 314 311 309 308 307 305
145 132 107 83 54 31 26 18 13 11 5 354 348 342 337 209 163 43 24 19 15 7 0 359 358 353 347 350 348 347 338 332 326 315 302 304 302 297 296 296 294 295 296
135 123 102 79 52 37 36 27 18 19 16 355 350 343 342 204 213 303 359 352 350 351 350 343 341 345 341 337 338 337 329 323 317 304 301 301 295 293 292 292 290 288 287
129 118 99 75 50 41 44 32 26 17 17 7 355 348 344 308 287 267 333 323 330 339 338 335 336 336 333 326 321 328 322 317 311 298 302 300 296 293 295 294 291 288 286
128 115 92 72 60 53 45 36 30 25 20 20 9 335 357 338 12 313 318 333 321 319 322 327 330 331 328 321 318 318 318 312 297 298 299 297 294 295 295 294 293 290 287
126 109 92 75 62 52 50 42 34 31 20 19 36 35 350 314 327 320 299 304 318 317 320 324 328 329 323 313 314 314 312 304 296 298 297 295 293 293 293 292 290 288 285
123 110 91 73 63 58 52 41 32 32 30 26 11 3 352 299 309 321 309 307 303 317 316 319 323 314 312 315 313 310 303 294 296 297 296 293 293 292 291 289 286 285 284
123 107 88 76 67 56 46 33 24 21 22 17 11 351 335 323 287 307 300 306 313 312 312 307 312 318 313 311 310 311 302 295 294 296 294 295 293 291 289 287 286 284 283
123 106 93 77 64 51 36 24 14 6 3 359 356 353 342 314 302 297 287 306 300 311 309 306 314 311 311 310 308 307 298 298 297 295 295 293 292 291 290 287 286 284 283
127 117 98 77 56 39 24 10 360 355 352 348 346 341 333 315 309 310 302 306 303 312 299 314 308 306 303 308 309 305 302 299 299 298 297 295 294 292 290 289 287 286 284
136 121 92 64 43 22 5 356 350 347 341 342 337 330 320 310 306 308 309 311 315 287 304 269 306 307 313 308 303 300 297 297 299 298 297 295 293 292 292 291 289 287 286
132 114 88 53 25 5 352 346 342 341 337 338 333 327 317 306 296 300 309 308 282 307 308 304 299 308 307 307 305 300 295 292 294 294 293 293 294 293 292 290 289 287 283
125 109 72 35 5 352 346 341 338 340 336 333 331 324 316 308 297 298 304 304 292 271 287 304 303 301 302 299 296 295 291 294 294 291 287 294 294 293 291 289 287 284 281
124 95 51 8 348 346 344 341 341 338 333 330 326 322 317 315 297 291 297 297 291 279 272 294 298 304 305 301 297 294 289 289 287 292 292 291 292 291 289 286 286 283 284
115 74 23 354 347 344 346 345 339 335 332 328 326 321 318 316 302 296 298 298 294 288 273 286 297 304 301 301 300 297 297 292 284 284 288 292 294 292 289 287 287 286 284
98 48 6 354 349 348 344 340 339 334 330 326 326 323 321 320 314 310 304 299 292 287 283 286 291 297 297 299 301 299 296 295 292 289 295 293 292 293 290 288 288 287 285
78 32 7 356 348 343 341 341 335 325 324 326 326 323 321 319 314 312 310 306 309 303 294 287 286 289 294 307 305 304 304 300 296 296 292 292 294 290 290 291 290 288 287
54 21 359 348 346 343 341 331 321 320 321 326 329 328 325 318 314 316 315 314 308 301 298 293 313 315 306 311 308 306 298 301 299 299 296 292 292 289 285 286 285 284 284
33 8 356 349 344 338 332 324 320 317 319 327 324 325 326 325 322 315 314 309 305 318 324 315 307 306 306 305 302 299 300 306 302 308 299 295 295 288 286 284 284 285 284
10 360 355 345 336 335 334 325 320 315 321 321 318 321 325 325 322 321 315 308 315 317 311 310 305 300 298 299 303 305 301 297 296 301 301 293 296 290 290 288 288 289 287
1 353 344 340 336 337 331 324 321 319 318 317 318 323 322 318 320 316 313 321 322 318 312 310 304 300 303 308 305 303 301 297 296 298 298 288 296 289 293 290 289 289 289
352 344 343 340 336 332 332 329 326 321 318 320 323 321 316 318 318 318 325 321 319 315 316 312 308 308 307 308 309 309 306 304 300 302 305 291 295 296 296 290 286 286 288
346 343 338 339 334 334 338 329 326 322 321 318 319 321 319 321 319 322 323 324 322 313 312 322 319 318 314 312 312 309 304 298 299 303 307 305 302 306 302 291 297 293 287